sat.trackr.live / text

‹ back to catalog

STARLINK-34127

NORAD 63810 · 2025-092G

PAYLOAD ACTIVE UNKNOWN

§ Identity

Operator
Country
US
Launch date
2025-05-04
Launch site
AFETR
Launch vehicle
Mass (kg)
RCS (m²)

Purposes: comms

External: N2YO · Heavens-Above · Gunter

§ Orbital elements

Epoch: 2026-05-24T21:56:57.787872Z

Period
94.27 min
Inclination
42.9993°
Eccentricity
0.0000748
Mean motion
15.27586146 rev/d
Perigee alt
482.5 km
Apogee alt
483.5 km
Semi-major
6,861.2 km
B*
5.1583e-4
RAAN
101.9502°
Arg perigee
259.9732°
Mean anomaly
100.1035°
Rev number
6,027

§ Raw data

STARLINK-341271 63810U 25092G   26144.91455773  .00013962  00000+0  51583-3 0  99992 63810  42.9993 101.9502 0000748 259.9732 100.1035 15.27586146 60270

JSON: /api/v1/satellites/63810 · /tle

For live sub-satellite position, see the globe view (requires WebGL).

§ Visibility from observer

Set your observer location to see the next 7 days of passes ≥ 10°. The values pass through the URL so the page stays shareable.

No JS? Fill the form by hand. The geolocation button needs JavaScript.